Overview Statistics Trail Chart Weather Telemetry Raw packets
 

This is the latest recevied weather packets stored in our database for station/object KD4EED. If no packets are shown the sender has not sent any weather packets the latest 10 day(s).

<< 21 22 23 24 25 26 27 >>
Time Temp. Humidity Pressure Rain* Wind** Luminosity Snow
1788538880 20.56° C 77% 1011.2 hPa - - 51 W/m² -
1788538576 20.56° C 79% 1011.4 hPa - - 81 W/m² -
1788538271 20.56° C 78% 1011.3 hPa - - 60 W/m² -
1788537967 20.56° C 79% 1011.1 hPa - - 58 W/m² -
1788537662 20.56° C 81% 1011.1 hPa - - 73 W/m² -
1788537362 20° C 81% 1011 hPa - - 83 W/m² -
1788537056 20° C 81% 1010.9 hPa - - 63 W/m² -
1788536749 20° C 83% 1011.1 hPa - - 58 W/m² -
1788536445 19.44° C 84% 1011 hPa - - 71 W/m² -
1788536144 19.44° C 85% 1011.3 hPa - - 59 W/m² -
1788535841 18.89° C 86% 1011.2 hPa - - 60 W/m² -
1788535536 18.89° C 87% 1011.1 hPa - - 53 W/m² -
1788535232 18.33° C 88% 1011.1 hPa - - 35 W/m² -
1788534926 18.33° C 88% 1011.1 hPa - - 31 W/m² -
1788534620 18.33° C 89% 1011.1 hPa - - 31 W/m² -
1788534320 18.33° C 89% 1010.9 hPa - - 32 W/m² -
1788534016 17.78° C 90% 1010.9 hPa - - 26 W/m² -
1788533710 17.78° C 90% 1010.9 hPa - - 24 W/m² -
1788533405 17.78° C 91% 1010.9 hPa - - 23 W/m² -
1788533100 17.78° C 92% 1010.9 hPa - - 27 W/m² -
1788532796 17.22° C 93% 1010.9 hPa - - 25 W/m² -
1788532492 17.22° C 93% 1010.8 hPa - - 22 W/m² -
1788532189 17.22° C 94% 1010.6 hPa - - 28 W/m² -
1788531885 16.67° C 94% 1010.5 hPa - - 33 W/m² -
1788531584 16.67° C 94% 1010.6 hPa - - 27 W/m² -

* Rain since midnight (hover to see other rain measurements)
** Current wind speed in m/s (hover to see current wind gust speed)